TimeEST,TemperatureF,Dew PointF,Humidity,Sea Level PressureIn,VisibilityMPH,Wind Direction,Wind SpeedMPH,Gust SpeedMPH,PrecipitationIn,Events,Conditions,WindDirDegrees,DateUTC
12:11 AM,64.4,62.6,94,29.59,2.5,WSW,20.7,36.8,0.07,Rain,Light Rain,250,2012-12-21 05:11:00
12:17 AM,64.4,60.8,88,29.59,8.0,West,18.4,34.5,0.07,Rain,Light Rain,260,2012-12-21 05:17:00
12:27 AM,64.4,59.0,83,29.59,10.0,West,13.8,24.2,0.07,,Overcast,260,2012-12-21 05:27:00
12:53 AM,63.0,59.0,87,29.59,10.0,West,12.7,23.0,0.07,,Overcast,270,2012-12-21 05:53:00
1:31 AM,57.2,48.2,72,29.61,10.0,West,16.1,29.9,N/A,,Overcast,280,2012-12-21 06:31:00
1:53 AM,55.9,46.0,69,29.63,10.0,West,11.5,31.1,N/A,,Overcast,260,2012-12-21 06:53:00
2:53 AM,48.9,33.1,54,29.69,10.0,West,23.0,35.7,N/A,,Mostly Cloudy,280,2012-12-21 07:53:00
3:53 AM,46.0,30.0,54,29.70,10.0,West,16.1,28.8,N/A,,Clear,280,2012-12-21 08:53:00
4:53 AM,45.0,30.0,56,29.71,10.0,West,13.8,25.3,N/A,,Clear,270,2012-12-21 09:53:00
5:53 AM,45.0,30.0,56,29.73,10.0,West,15.0,24.2,N/A,,Clear,270,2012-12-21 10:53:00
7:53 AM,44.1,28.9,55,29.76,10.0,West,13.8,24.2,N/A,,Clear,260,2012-12-21 12:53:00
8:53 AM,46.0,30.0,54,29.77,10.0,West,13.8,26.5,N/A,,Clear,260,2012-12-21 13:53:00
9:53 AM,46.9,28.0,48,29.77,10.0,West,16.1,27.6,N/A,,Clear,270,2012-12-21 14:53:00
10:53 AM,46.9,26.1,44,29.77,10.0,West,19.6,32.2,N/A,,Clear,270,2012-12-21 15:53:00
11:53 AM,48.9,26.1,41,29.74,10.0,West,10.4,21.9,N/A,,Clear,260,2012-12-21 16:53:00
12:53 PM,48.9,25.0,39,29.73,10.0,West,16.1,25.3,N/A,,Clear,270,2012-12-21 17:53:00
1:53 PM,50.0,25.0,38,29.73,10.0,WNW,17.3,27.6,N/A,,Partly Cloudy,300,2012-12-21 18:53:00
2:53 PM,50.0,25.0,38,29.74,10.0,WNW,15.0,26.5,N/A,,Scattered Clouds,290,2012-12-21 19:53:00
3:53 PM,48.9,24.1,38,29.76,10.0,West,19.6,31.1,N/A,,Mostly Cloudy,280,2012-12-21 20:53:00
4:53 PM,48.9,24.1,38,29.78,10.0,West,15.0,25.3,N/A,,Overcast,280,2012-12-21 21:53:00
5:53 PM,46.9,24.1,41,29.82,10.0,West,10.4,19.6,N/A,,Clear,280,2012-12-21 22:53:00
6:53 PM,45.0,24.1,44,29.85,10.0,West,9.2,23.0,N/A,,Clear,270,2012-12-21 23:53:00
7:53 PM,44.1,25.0,47,29.87,10.0,West,8.1,-,N/A,,Clear,280,2012-12-22 00:53:00
8:53 PM,42.1,26.1,53,29.88,10.0,West,5.8,-,N/A,,Clear,260,2012-12-22 01:53:00
9:53 PM,41.0,26.1,55,29.89,10.0,WSW,4.6,-,N/A,,Clear,250,2012-12-22 02:53:00
10:53 PM,39.9,25.0,55,29.89,10.0,West,6.9,-,N/A,,Clear,270,2012-12-22 03:53:00
11:53 PM,41.0,25.0,53,29.90,10.0,West,6.9,-,N/A,,Clear,270,2012-12-22 04:53:00